TimeEST,TemperatureF,Dew PointF,Humidity,Sea Level PressureIn,VisibilityMPH,Wind Direction,Wind SpeedMPH,Gust SpeedMPH,PrecipitationIn,Events,Conditions,WindDirDegrees,DateUTC
12:15 AM,62.6,59.0,88,29.75,10.0,South,12.7,19.6,N/A,,Overcast,190,2013-11-18 05:15:00
12:35 AM,62.6,59.0,88,29.72,10.0,South,10.4,18.4,N/A,,Overcast,190,2013-11-18 05:35:00
12:55 AM,62.6,59.0,88,29.71,10.0,South,9.2,-,N/A,,Overcast,190,2013-11-18 05:55:00
1:15 AM,62.6,59.0,88,29.70,7.0,SSW,11.5,17.3,N/A,,Overcast,200,2013-11-18 06:15:00
1:35 AM,62.6,59.0,88,29.68,5.0,South,10.4,16.1,0.01,,Overcast,190,2013-11-18 06:35:00
1:55 AM,62.6,59.0,88,29.67,5.0,South,11.5,18.4,0.01,,Overcast,190,2013-11-18 06:55:00
2:15 AM,62.6,60.8,94,29.66,10.0,SSW,13.8,21.9,N/A,,Overcast,200,2013-11-18 07:15:00
2:35 AM,62.6,60.8,94,29.66,2.5,SSW,12.7,24.2,N/A,,Overcast,200,2013-11-18 07:35:00
2:55 AM,62.6,60.8,94,29.65,7.0,SSW,13.8,19.6,N/A,,Overcast,210,2013-11-18 07:55:00
3:15 AM,62.6,60.8,94,29.65,7.0,SW,11.5,17.3,N/A,,Overcast,220,2013-11-18 08:15:00
3:35 AM,62.6,60.8,94,29.68,2.5,West,19.6,26.5,0.06,,Overcast,270,2013-11-18 08:35:00
3:55 AM,59.0,51.8,77,29.68,7.0,WSW,6.9,-,0.07,,Overcast,250,2013-11-18 08:55:00
4:15 AM,59.0,53.6,82,29.67,10.0,West,4.6,-,N/A,,Overcast,260,2013-11-18 09:15:00
4:35 AM,59.0,51.8,77,29.67,10.0,West,6.9,-,N/A,,Mostly Cloudy,260,2013-11-18 09:35:00
4:55 AM,60.8,50.0,68,29.68,10.0,WSW,8.1,-,N/A,,Mostly Cloudy,250,2013-11-18 09:55:00
5:15 AM,60.8,46.4,59,29.68,10.0,WSW,5.8,-,N/A,,Mostly Cloudy,250,2013-11-18 10:15:00
5:35 AM,60.8,44.6,55,29.66,10.0,WSW,6.9,-,N/A,,Mostly Cloudy,240,2013-11-18 10:35:00
5:55 AM,60.8,44.6,55,29.67,10.0,WSW,6.9,-,N/A,,Mostly Cloudy,250,2013-11-18 10:55:00
6:15 AM,60.8,44.6,55,29.67,10.0,WSW,5.8,-,N/A,,Mostly Cloudy,240,2013-11-18 11:15:00
6:35 AM,60.8,44.6,55,29.68,10.0,WSW,8.1,-,N/A,,Scattered Clouds,240,2013-11-18 11:35:00
6:55 AM,59.0,42.8,55,29.67,10.0,WSW,3.5,-,N/A,,Clear,250,2013-11-18 11:55:00
7:15 AM,59.0,42.8,55,29.69,10.0,WSW,4.6,-,N/A,,Clear,240,2013-11-18 12:15:00
7:35 AM,59.0,42.8,55,29.70,10.0,WSW,4.6,-,N/A,,Clear,240,2013-11-18 12:35:00
7:55 AM,60.8,42.8,52,29.71,10.0,WSW,4.6,-,N/A,,Clear,240,2013-11-18 12:55:00
8:15 AM,60.8,42.8,52,29.72,10.0,West,6.9,-,N/A,,Clear,260,2013-11-18 13:15:00
8:35 AM,62.6,41.0,45,29.72,10.0,WSW,4.6,-,N/A,,Clear,250,2013-11-18 13:35:00
8:55 AM,62.6,41.0,45,29.72,10.0,WSW,8.1,-,N/A,,Clear,250,2013-11-18 13:55:00
9:15 AM,62.6,37.4,39,29.72,10.0,West,6.9,-,N/A,,Clear,260,2013-11-18 14:15:00
9:35 AM,64.4,35.6,34,29.72,10.0,WSW,11.5,16.1,N/A,,Clear,250,2013-11-18 14:35:00
9:55 AM,64.4,33.8,32,29.72,10.0,WSW,10.4,21.9,N/A,,Clear,250,2013-11-18 14:55:00
10:15 AM,64.4,33.8,32,29.72,10.0,West,13.8,21.9,N/A,,Clear,260,2013-11-18 15:15:00
10:35 AM,66.2,33.8,30,29.71,10.0,WNW,6.9,16.1,N/A,,Clear,290,2013-11-18 15:35:00
10:55 AM,66.2,33.8,30,29.71,10.0,West,5.8,10.4,N/A,,Clear,270,2013-11-18 15:55:00
11:15 AM,66.2,33.8,30,29.70,10.0,WNW,8.1,-,N/A,,Clear,290,2013-11-18 16:15:00
11:35 AM,64.4,32.0,30,29.70,10.0,West,10.4,17.3,N/A,,Clear,270,2013-11-18 16:35:00
11:55 AM,66.2,30.2,26,29.69,10.0,West,11.5,23.0,N/A,,Clear,270,2013-11-18 16:55:00
12:15 PM,66.2,30.2,26,29.68,10.0,West,13.8,20.7,N/A,,Clear,260,2013-11-18 17:15:00
12:35 PM,66.2,30.2,26,29.68,10.0,WNW,8.1,20.7,N/A,,Clear,290,2013-11-18 17:35:00
12:55 PM,66.2,30.2,26,29.68,10.0,West,9.2,23.0,N/A,,Clear,270,2013-11-18 17:55:00
1:15 PM,66.2,30.2,26,29.68,10.0,West,12.7,20.7,N/A,,Clear,270,2013-11-18 18:15:00
1:35 PM,66.2,28.4,24,29.67,10.0,West,12.7,21.9,N/A,,Clear,260,2013-11-18 18:35:00
1:55 PM,66.2,28.4,24,29.67,10.0,WSW,15.0,19.6,N/A,,Clear,250,2013-11-18 18:55:00
2:15 PM,66.2,28.4,24,29.67,10.0,West,11.5,20.7,N/A,,Clear,260,2013-11-18 19:15:00
2:35 PM,66.2,28.4,24,29.67,10.0,WSW,12.7,18.4,N/A,,Clear,250,2013-11-18 19:35:00
2:55 PM,64.4,28.4,26,29.67,10.0,West,13.8,23.0,N/A,,Clear,260,2013-11-18 19:55:00
3:15 PM,64.4,26.6,24,29.68,10.0,West,9.2,19.6,N/A,,Clear,260,2013-11-18 20:15:00
3:35 PM,64.4,24.8,22,29.68,10.0,WSW,9.2,16.1,N/A,,Clear,250,2013-11-18 20:35:00
3:55 PM,62.6,26.6,26,29.69,10.0,West,9.2,17.3,N/A,,Clear,270,2013-11-18 20:55:00
4:15 PM,62.6,28.4,27,29.70,10.0,West,12.7,19.6,N/A,,Clear,260,2013-11-18 21:15:00
4:35 PM,62.6,26.6,26,29.70,10.0,WSW,5.8,-,N/A,,Clear,250,2013-11-18 21:35:00
4:55 PM,60.8,26.6,27,29.70,10.0,West,5.8,-,N/A,,Clear,260,2013-11-18 21:55:00
5:15 PM,60.8,26.6,27,29.71,10.0,West,4.6,-,N/A,,Clear,270,2013-11-18 22:15:00
5:35 PM,59.0,26.6,29,29.72,10.0,Calm,Calm,-,N/A,,Clear,0,2013-11-18 22:35:00
5:55 PM,55.4,28.4,36,29.73,10.0,SW,3.5,-,N/A,,Clear,230,2013-11-18 22:55:00
6:15 PM,59.0,26.6,29,29.74,10.0,WSW,4.6,-,N/A,,Clear,240,2013-11-18 23:15:00
6:35 PM,57.2,26.6,31,29.75,10.0,WSW,3.5,-,N/A,,Clear,250,2013-11-18 23:35:00
6:55 PM,57.2,26.6,31,29.75,10.0,West,4.6,-,N/A,,Clear,280,2013-11-18 23:55:00
7:15 PM,55.4,26.6,33,29.76,10.0,West,4.6,-,N/A,,Clear,260,2013-11-19 00:15:00
7:35 PM,55.4,26.6,33,29.77,10.0,West,3.5,-,N/A,,Clear,270,2013-11-19 00:35:00
7:55 PM,55.4,26.6,33,29.78,10.0,Calm,Calm,-,N/A,,Clear,0,2013-11-19 00:55:00
8:15 PM,53.6,26.6,35,29.78,10.0,West,3.5,-,N/A,,Scattered Clouds,280,2013-11-19 01:15:00
8:35 PM,53.6,26.6,35,29.79,10.0,West,4.6,-,N/A,,Clear,280,2013-11-19 01:35:00
8:55 PM,53.6,26.6,35,29.80,10.0,WNW,4.6,-,N/A,,Clear,290,2013-11-19 01:55:00
9:15 PM,53.6,26.6,35,29.81,10.0,West,5.8,-,N/A,,Clear,270,2013-11-19 02:15:00
9:35 PM,53.6,26.6,35,29.81,10.0,WNW,6.9,-,N/A,,Scattered Clouds,290,2013-11-19 02:35:00
9:55 PM,53.6,26.6,35,29.82,10.0,WNW,12.7,20.7,N/A,,Scattered Clouds,290,2013-11-19 02:55:00
10:15 PM,53.6,26.6,35,29.82,10.0,WNW,11.5,24.2,N/A,,Clear,290,2013-11-19 03:15:00
10:35 PM,51.8,26.6,38,29.83,10.0,WNW,9.2,21.9,N/A,,Clear,300,2013-11-19 03:35:00
10:55 PM,51.8,26.6,38,29.83,10.0,WNW,11.5,25.3,N/A,,Clear,290,2013-11-19 03:55:00
11:15 PM,51.8,23.0,33,29.85,10.0,WNW,10.4,21.9,N/A,,Clear,290,2013-11-19 04:15:00
11:35 PM,50.0,23.0,35,29.85,10.0,WNW,10.4,16.1,N/A,,Clear,290,2013-11-19 04:35:00
11:55 PM,50.0,23.0,35,29.85,10.0,WNW,13.8,19.6,N/A,,Clear,290,2013-11-19 04:55:00